Regional Weather Roundup
Issued by NWS

Home | Current Version | Previous Version | Graphics & Text | Print | Product List | Glossary On
Versions: 1 2 3 4 5 6 7 8 9 10 11 12 13 14 15 16 17 18 19 20 21 22 23 24 25 26 27 28 29 30 31 32 33 34 35 36 37 38 39 40 41 42 43 44 45 46 47 48 49 50
000
ASUS43 KOAX 011910
RWRNE

WEATHER ROUNDUP FOR NEBRASKA
NATIONAL WEATHER SERVICE OMAHA NE
100 PM CST WED MAR 01 2017

NOTES: SATELLITE DATA IS BEING USED TO AUGMENT CLOUD COVER ABOVE
       12000 FEET.
       "FAIR" INDICATES FEW OR NO CLOUDS BELOW 12,000 FEET WITH NO
       SIGNIFICANT WEATHER AND/OR OBSTRUCTIONS TO VISIBILITY.

  * THESE STATIONS DO NOT REPORT WEATHER SUCH AS RAIN...SNOW OR FOG.

NEZ001>004-019>022-054>056-012000-
NEBRASKA PANHANDLE

CITY           SKY/WX    TMP DP  RH WIND       PRES   REMARKS
SCOTTSBLUFF    SUNNY     35  17  47 W17G28    30.18F WCI  25
ALLIANCE       SUNNY     29  17  61 W14       30.15F WCI  18
CHADRON        SUNNY     32  13  45 W14       30.17S WCI  22
KIMBALL        SUNNY     39  13  34 NW33G44   30.15F WCI  27
SIDNEY         SUNNY     39  11  31 NW29G39   30.19S WCI  27
$$

NEZ057>060-069>072-079>082-012000-
SOUTHWEST NEBRASKA

CITY           SKY/WX    TMP DP  RH WIND       PRES   REMARKS
NORTH PLATTE   SUNNY     44  11  26 NW23G35   30.20S
IMPERIAL       SUNNY     42   7  23 NW20G30   30.21F
MCCOOK         MOSUNNY   45  10  24 NW20G29   30.22S
$$

NEZ005>010-023>029-035>040-094-012000-
NORTH CENTRAL NEBRASKA

CITY           SKY/WX    TMP DP  RH WIND       PRES   REMARKS
VALENTINE      MOSUNNY   35  18  49 W17G26    30.15R WCI  25
BROKEN BOW     MOSUNNY   41  17  38 NW23G35   30.15F
ORD            MOSUNNY   40  19  43 NW25G38   30.14S WCI  29
$$

NEZ041-046>049-061>064-073>077-083>087-012000-
SOUTH CENTRAL NEBRASKA

CITY           SKY/WX    TMP DP  RH WIND       PRES   REMARKS
GRAND ISLAND   MOSUNNY   43  23  45 NW24G35   30.16S
HASTINGS       SUNNY     45  20  36 NW26G37   30.18R
$$

NEZ011>018-030>034-042>045-012000-
NORTHEAST NEBRASKA

CITY           SKY/WX    TMP DP  RH WIND       PRES   REMARKS
$$

NEZ050>053-065>068-078-088>093-012000-
SOUTHEAST NEBRASKA

CITY           SKY/WX    TMP DP  RH WIND       PRES   REMARKS
OMAHA EPPLEY   PTSUNNY   43  27  53 NW22G29   30.09S
FALLS CITY     SUNNY     47  26  44 NW18G25   30.12R
$$

NEZ044-045-051>053-067-012000-
OMAHA AREA

CITY           SKY/WX    TMP DP  RH WIND       PRES   REMARKS
OMAHA EPPLEY   PTSUNNY   43  27  53 NW22G29   30.09S
$$



USA.gov is the U.S. government's official web portal to all federal, state and local government web resources and services.